Weather History for Hobart, OK

Change the Weather History Date:

Sunday, November 25, 2012

  Actual Average Record
Temperature  
Mean Temperature 51 °F -  
Max Temperature 63 °F 55 °F 73 °F (2008)
Min Temperature 39 °F 33 °F 21 °F (1996)
Degree Days  
Heating Degree Days 14    
Growing Degree Days 1 (Base 50)    
Moisture  
Dew Point 30 °F    
Average Humidity 49    
Maximum Humidity 73    
Minimum Humidity 33    
Precipitation  
Precipitation 0.00 in - - ()
Sea Level Pressure  
Sea Level Pressure 29.86 in    
Wind  
Wind Speed 11 mph (South)    
Max Wind Speed 21 mph    
Max Gust Speed -    
Visibility 10 miles    
Events      
Averages and records for this station are not official NWS values.
T = Trace of Precipitation, MM = Missing Value Source: NWS Daily Summary

Daily Weather History Graph

Daily Weather History Graph

Search for Another Location

Airport:

Trip Planner

Search our weather history database for the weather conditions in past years. The results will help you decide how hot, cold, wet, or windy it might be!

Date:

Astronomy

Nov. 25, 2012 Rise Set
Actual Time 7:20 AM CST 5:25 PM CST
Civil Twilight 6:53 AM CST 5:53 PM CST
Nautical Twilight 6:22 AM CST 6:24 PM CST
Astronomical Twilight 5:51 AM CST 6:54 PM CST
Moon 3:40 PM CST (11/25) 4:40 AM CST (11/25)
Length of Visible Light 10h 59m
Length of Day
10h 04m
Waxing Gibbous, 93% of the Moon is Illuminated
Nov 25
Waxing Gibbous
Nov 28
Full
Dec 6
Last Quarter
Dec 13
New
Dec 19
First Quarter

Hourly Weather History & Observations

Time (CST) Temp. Windchill Dew Point Humidity Pressure Visibility Wind Dir Wind Speed Gust Speed Precip Events Conditions
12:53 AM 45.0 °F 37.6 °F 21.9 °F 40% 29.95 in 10.0 mi South 17.3 mph - N/A   Clear
1:53 AM 44.1 °F 36.5 °F 21.9 °F 42% 29.92 in 10.0 mi South 17.3 mph - N/A   Clear
2:53 AM 43.0 °F 36.0 °F 23.0 °F 45% 29.91 in 10.0 mi South 13.8 mph - N/A   Clear
3:53 AM 42.1 °F 33.1 °F 23.0 °F 47% 29.89 in 10.0 mi South 20.7 mph - N/A   Clear
4:53 AM 41.0 °F 34.7 °F 24.1 °F 51% 29.88 in 10.0 mi South 10.4 mph - N/A   Clear
5:53 AM 39.9 °F 32.1 °F 25.0 °F 55% 29.88 in 10.0 mi SSW 13.8 mph - N/A   Clear
6:53 AM 39.0 °F 31.0 °F 25.0 °F 57% 29.87 in 10.0 mi South 13.8 mph - N/A   Clear
7:53 AM 39.0 °F 34.0 °F 26.1 °F 60% 29.89 in 10.0 mi SSW 6.9 mph - N/A   Clear
8:53 AM 48.0 °F - 30.0 °F 50% 29.89 in 10.0 mi South 13.8 mph - N/A   Clear
9:53 AM 52.0 °F - 32.0 °F 47% 29.88 in 10.0 mi South 11.5 mph - N/A   Clear
10:53 AM 54.0 °F - 34.0 °F 47% 29.88 in 10.0 mi SSW 6.9 mph - N/A   Clear
11:53 AM 57.9 °F - 34.0 °F 41% 29.87 in 10.0 mi Variable 3.5 mph - N/A   Clear
12:53 PM 59.0 °F - 34.0 °F 39% 29.84 in 10.0 mi Calm Calm - N/A   Clear
1:53 PM 63.0 °F - 34.0 °F 34% 29.81 in 10.0 mi Variable 5.8 mph - N/A   Clear
2:53 PM 63.0 °F - 33.1 °F 33% 29.81 in 10.0 mi Calm Calm - N/A   Clear
3:53 PM 63.0 °F - 33.1 °F 33% 29.82 in 10.0 mi Calm Calm - N/A   Clear
4:53 PM 62.1 °F - 33.1 °F 34% 29.82 in 10.0 mi Calm Calm - N/A   Clear
5:53 PM 57.9 °F - 34.0 °F 41% 29.83 in 10.0 mi Calm Calm - N/A   Clear
6:53 PM 52.0 °F - 33.1 °F 49% 29.84 in 10.0 mi NNE 3.5 mph - N/A   Clear
7:53 PM 45.0 °F 40.6 °F 32.0 °F 60% 29.85 in 10.0 mi North 8.1 mph - N/A   Clear
8:53 PM 43.0 °F 37.2 °F 32.0 °F 65% 29.84 in 10.0 mi NNE 10.4 mph - N/A   Clear
9:53 PM 42.1 °F 37.1 °F 32.0 °F 67% 29.84 in 10.0 mi ENE 8.1 mph - N/A   Clear
10:53 PM 41.0 °F 35.8 °F 33.1 °F 73% 29.85 in 10.0 mi NE 8.1 mph - N/A   Clear
11:53 PM 41.0 °F 35.8 °F 33.1 °F 73% 29.84 in 10.0 mi NE 8.1 mph - N/A   Clear